Theta_e
320 320 320 319 319 319 319 319 320 320 320 319 320 320 319 319 319 319 318 317 315 314 313 314 315 317 320 329 326 323 326 326 328 336 341 337 340 342 343 347 349 351 351 350 349 348 350
320 320 319 320 319 319 320 320 320 320 320 320 320 320 320 320 319 319 319 318 316 315 314 313 315 316 327 326 324 324 326 328 335 338 338 338 341 339 341 345 347 347 348 349 348 349 350
320 320 320 320 320 320 320 319 320 320 320 320 320 320 320 320 320 319 319 318 317 315 314 314 315 319 325 325 323 324 326 329 335 338 338 339 335 337 340 346 345 347 351 350 350 349 349
320 320 320 320 319 320 320 320 320 320 320 320 320 320 320 320 320 320 319 318 316 315 314 315 316 325 326 322 322 323 326 329 330 330 333 333 332 337 343 345 347 348 349 352 348 348 348
320 320 320 320 319 319 319 319 320 321 320 320 320 320 320 320 321 320 317 315 314 315 316 316 323 326 325 321 321 324 327 330 333 333 332 331 335 339 343 346 352 348 349 349 350 347 348
319 319 319 319 319 318 319 319 320 321 321 321 320 321 321 320 320 320 316 315 320 317 319 324 324 326 323 323 323 325 327 329 332 335 334 336 339 340 341 345 350 346 346 348 349 350 349
313 313 314 315 316 317 317 320 321 321 321 321 321 320 321 320 321 319 317 323 328 329 329 329 327 323 322 323 323 324 327 329 330 333 336 339 343 340 338 341 341 342 343 348 348 347 349
314 313 312 312 313 314 316 318 321 321 321 321 320 320 321 321 321 316 321 327 327 325 327 327 326 325 322 323 325 325 326 330 330 331 333 338 342 341 339 338 340 342 346 350 349 348 348
321 318 314 313 313 313 314 315 321 321 321 321 321 321 320 321 320 321 323 326 324 325 329 328 327 326 325 324 324 325 326 328 330 330 332 336 339 339 340 337 340 342 345 347 347 346 347
320 320 320 315 313 313 313 314 316 321 321 321 320 320 320 321 323 325 326 325 323 326 331 329 325 325 325 325 324 325 326 328 330 329 330 333 333 339 341 337 339 341 345 344 346 349 364
320 320 320 320 317 314 313 314 315 321 320 321 321 320 320 320 323 325 325 323 324 327 334 325 325 325 326 324 326 325 326 326 327 328 329 330 330 335 341 338 338 342 342 344 346 347 348
319 319 320 320 321 318 313 313 314 319 320 321 321 320 320 324 324 324 322 324 326 329 329 327 327 324 325 325 325 326 326 326 327 328 328 328 331 333 336 337 339 339 340 344 346 346 350
319 319 319 320 320 321 316 314 314 318 321 321 321 320 319 320 328 324 322 327 330 330 326 327 327 327 326 324 324 325 325 324 324 324 326 327 327 330 334 337 339 340 342 346 353 355 360
318 319 319 320 320 320 317 314 314 317 321 321 321 321 323 321 324 323 323 330 332 327 326 329 328 328 327 326 324 324 326 325 325 326 327 327 328 327 333 337 339 341 341 343 350 356 354
317 320 319 320 320 321 317 314 315 317 321 321 321 326 324 326 323 323 327 329 329 328 327 328 328 328 328 327 325 325 325 326 326 326 327 328 329 329 330 334 335 339 340 338 340 340 345
316 318 320 321 322 321 318 315 316 318 321 321 320 325 326 327 325 324 327 327 328 327 328 328 329 329 330 328 325 325 326 326 326 327 327 328 330 330 331 331 332 334 338 340 339 345 344
316 317 320 323 322 322 319 315 316 319 321 321 323 328 327 325 324 325 326 327 327 327 326 328 329 330 329 330 326 325 326 326 326 327 327 326 328 329 331 332 334 334 337 339 341 348 345
316 317 317 320 322 321 321 316 316 319 321 324 327 329 325 323 326 326 327 326 318 326 325 327 327 329 329 330 331 327 328 326 326 326 326 326 327 327 330 331 332 334 337 337 340 342 338
316 316 317 317 320 321 320 317 316 319 319 321 330 329 327 323 328 327 327 327 326 324 323 325 327 328 330 332 333 332 329 328 326 325 326 326 325 326 327 330 330 331 335 338 335 338 341
315 317 317 316 317 320 319 319 316 319 319 319 329 332 331 326 326 329 328 327 326 325 324 326 327 329 330 332 332 334 329 328 328 325 331 328 326 325 327 329 329 330 332 335 337 339 339
313 317 316 315 316 318 320 320 316 318 319 318 329 330 340 330 327 327 328 329 330 328 328 327 329 330 331 334 334 333 332 332 331 332 327 325 326 327 326 327 328 329 330 332 335 337 338
313 317 315 315 316 318 320 320 317 318 319 322 331 331 333 334 335 332 327 332 333 330 329 331 330 331 330 335 338 335 332 332 335 334 328 327 326 327 327 327 327 327 328 330 332 333 335
315 315 314 314 316 318 320 320 317 319 319 327 328 327 329 330 332 334 333 332 332 332 333 331 335 334 336 337 337 337 337 338 338 338 331 328 327 328 328 328 327 328 328 330 332 333 335
313 314 314 314 316 317 319 320 317 319 319 323 326 326 331 330 330 333 333 334 334 333 335 333 334 337 337 337 337 336 335 334 335 337 336 334 330 329 330 330 330 328 329 328 330 331 332
311 312 313 313 315 316 318 320 317 318 318 321 324 326 331 332 330 329 331 334 334 333 334 332 331 332 335 337 339 337 334 332 334 334 335 334 331 331 331 332 331 329 330 329 330 331 331
311 312 312 313 315 316 318 319 318 317 318 319 323 324 326 332 330 329 330 330 331 331 333 332 330 332 333 337 337 339 336 334 335 335 333 333 335 338 340 337 333 331 331 331 332 334 335
311 311 312 313 314 315 317 319 318 317 318 319 322 323 324 330 329 330 329 329 329 330 332 332 332 333 333 338 338 336 340 334 339 338 338 334 335 335 337 342 340 338 339 336 334 344 346
310 310 311 313 314 315 316 318 319 317 318 318 321 321 322 328 328 328 329 329 329 329 332 333 333 331 334 337 336 336 336 339 342 337 344 339 339 335 336 336 341 344 338 338 348 346 346
310 310 311 312 314 315 315 317 319 318 318 316 320 321 320 322 327 325 325 325 327 328 331 331 332 336 336 339 336 336 346 341 340 343 335 342 337 344 337 343 339 344 346 343 343 344 345
Wind_Speed
15 15 15 15 14 14 15 15 16 16 16 17 18 19 18 18 18 17 18 17 16 15 14 13 13 14 9 10 9 7 5 7 11 13 17 14 13 11 7 3 2 1 4 1 2 3 2
16 16 16 16 15 15 15 15 15 16 16 17 19 20 21 22 20 19 19 19 18 16 14 12 12 10 9 15 4 4 4 7 13 14 15 13 9 8 13 6 9 7 4 2 1 2 2
15 16 16 17 17 17 17 16 16 15 16 17 20 22 23 23 22 23 21 21 19 16 14 11 9 5 11 12 0 6 9 9 12 13 14 8 8 11 10 11 3 2 10 6 6 4 2
13 14 15 16 17 18 18 18 18 17 17 18 20 22 24 24 22 27 24 20 16 13 11 6 5 6 8 1 8 12 13 14 13 11 12 10 10 15 10 1 11 12 11 3 8 3 2
12 14 15 15 17 17 18 19 19 18 19 19 21 24 25 25 24 28 20 14 10 8 4 3 5 8 10 3 12 15 16 15 15 14 11 7 12 16 6 6 7 14 2 7 8 4 2
12 13 14 15 16 17 18 19 19 20 20 21 22 25 27 27 27 26 14 8 5 3 3 6 12 8 9 11 11 9 14 15 11 13 12 12 14 15 15 5 4 10 3 6 3 6 8
13 13 14 15 16 17 19 19 20 21 21 23 24 26 28 26 28 19 13 5 5 7 14 15 1 10 1 4 7 13 15 15 16 15 17 18 15 14 14 4 6 7 8 9 2 2 5
13 14 14 15 16 17 19 20 21 22 22 24 24 26 29 25 25 7 9 7 8 7 10 15 17 13 9 3 6 13 16 17 18 19 19 19 16 18 7 5 8 13 3 10 7 2 7
15 15 15 16 16 17 19 21 21 22 23 25 25 27 29 24 15 5 8 6 4 11 8 9 11 13 14 13 13 16 16 20 16 20 21 21 18 16 5 9 14 14 8 3 5 8 11
14 16 16 16 17 18 19 21 23 23 24 25 26 27 29 28 7 10 4 1 8 7 6 14 11 8 9 10 15 16 21 19 21 17 19 20 18 19 13 12 15 8 11 7 9 12 7
15 15 16 16 17 17 19 21 24 24 24 26 27 26 30 17 14 7 6 7 10 7 6 8 11 6 7 13 5 19 13 20 21 19 15 18 19 22 13 15 16 11 7 13 12 15 18
14 14 15 16 17 18 18 20 23 25 25 27 28 29 28 3 8 10 9 8 7 7 6 8 7 11 13 18 12 15 15 16 14 18 17 19 14 18 20 15 12 9 12 17 15 14 4
14 13 14 15 17 18 19 20 23 25 27 30 31 30 21 10 5 5 8 8 7 10 4 8 9 9 15 14 19 13 17 19 16 16 17 18 19 21 17 19 17 11 15 11 6 3 5
16 13 13 13 16 18 18 19 23 26 27 31 35 22 11 12 7 7 9 9 10 1 2 5 4 7 11 14 19 15 17 18 21 19 13 15 16 23 15 21 19 14 17 14 10 6 7
15 12 11 12 13 16 17 19 21 26 27 32 31 9 9 5 8 8 7 11 14 7 4 4 8 13 13 14 12 18 18 19 20 21 17 11 14 14 18 19 19 16 16 16 16 18 9
14 13 11 12 13 15 16 18 21 25 26 30 18 14 12 6 8 10 9 17 11 0 7 10 14 5 11 15 15 17 17 17 19 19 16 18 9 13 14 16 18 21 10 12 11 14 11
14 13 12 11 12 14 16 17 20 25 27 19 9 6 6 7 11 8 11 16 10 9 7 9 8 4 11 4 14 16 17 12 11 17 16 19 11 11 13 17 18 13 13 11 13 6 10
13 12 12 11 12 13 15 16 18 23 29 10 12 7 8 10 8 11 12 16 4 9 8 10 7 10 14 7 9 15 10 15 17 14 19 17 10 11 14 18 20 19 21 19 12 11 11
13 11 12 12 12 13 13 14 16 19 22 14 4 7 8 12 8 11 14 6 8 13 11 9 10 9 5 9 7 14 10 11 6 13 13 16 11 14 16 17 16 19 24 20 20 18 15
12 11 11 11 12 11 12 13 13 15 19 9 5 5 6 8 13 13 8 9 13 12 13 11 11 11 9 12 12 9 8 7 8 13 6 11 17 13 14 16 16 16 19 20 20 14 11
12 10 10 9 12 12 10 11 12 13 17 8 5 4 6 6 12 13 12 6 7 10 11 9 13 15 16 11 13 14 14 8 9 6 9 16 18 17 19 17 13 18 20 22 21 20 19
9 8 8 11 12 11 9 9 11 11 16 6 5 3 5 12 7 10 6 11 10 10 7 11 13 14 12 11 17 10 14 13 12 9 14 17 17 17 21 13 17 17 17 21 23 19 17
5 5 8 10 10 9 9 9 9 7 10 7 3 10 5 9 13 10 12 14 11 7 7 14 9 7 6 11 10 14 13 14 13 5 13 17 15 15 15 18 16 17 16 16 19 22 20
7 7 8 11 10 9 9 8 9 5 6 10 12 10 7 11 10 10 14 5 9 7 11 6 3 9 13 9 12 17 18 17 15 13 12 10 16 13 12 15 17 12 16 18 15 13 13
8 9 9 12 11 9 8 9 8 6 5 7 10 7 7 10 11 7 9 9 12 9 11 15 15 12 8 13 13 15 12 16 17 15 15 13 10 12 12 12 9 20 5 17 11 7 10
9 9 10 12 10 8 8 8 8 7 6 6 8 7 7 7 9 10 9 9 10 12 12 12 11 10 9 10 12 19 14 14 17 19 12 15 12 8 6 16 15 14 18 15 4 8 5
10 11 10 9 9 8 7 7 9 9 6 5 6 7 7 9 14 13 9 9 6 8 9 6 3 8 14 10 14 15 17 4 10 19 15 14 10 13 13 1 12 14 9 5 12 3 7
11 11 10 9 9 8 8 8 11 10 8 4 6 5 6 6 15 16 14 11 9 7 9 7 7 12 9 11 14 16 2 6 4 18 18 12 8 12 13 6 9 19 4 6 7 6 7
10 10 10 9 9 8 8 9 11 12 10 6 6 4 5 7 10 22 19 19 19 19 12 8 11 6 6 7 9 11 3 4 5 4 13 1 7 13 3 4 13 2 27 12 9 5 6
Wind_Direction
33 30 30 27 26 24 22 20 17 14 11 8 5 360 358 351 344 338 331 322 316 312 313 315 317 324 325 236 254 134 66 194 188 212 238 267 272 293 334 343 217 349 81 229 141 312 310
28 25 22 21 20 20 18 15 11 7 5 2 359 358 354 348 341 334 327 318 312 311 309 308 311 316 260 260 51 165 194 192 203 218 248 243 283 346 288 357 342 32 346 322 124 241 171
23 20 17 15 14 13 13 11 8 5 0 358 355 352 347 346 340 334 324 317 309 305 299 299 297 301 264 258 16 213 213 225 205 227 247 252 309 286 330 346 41 136 230 172 163 195 302
18 13 13 9 8 6 5 5 4 2 359 355 352 347 344 343 339 335 327 315 303 296 291 283 258 257 266 35 240 235 225 234 226 232 251 288 278 271 275 296 225 225 22 271 100 221 177
2 1 360 1 2 1 358 0 358 357 353 351 349 346 342 341 338 335 327 316 298 285 268 214 237 235 254 164 224 220 217 225 207 214 237 261 258 265 232 234 34 312 101 88 135 181 211
351 352 355 356 355 357 353 355 353 352 350 347 345 343 340 339 338 334 329 317 275 215 235 243 264 260 244 227 179 210 210 232 231 210 217 232 239 243 228 132 267 294 78 84 93 142 211
344 346 347 349 349 350 351 348 350 349 347 346 342 340 337 337 338 332 332 277 215 201 217 252 300 247 136 207 220 227 215 208 235 227 220 211 236 242 261 23 15 307 300 98 319 84 270
336 338 339 341 343 344 345 344 347 346 345 344 342 338 334 335 334 335 315 270 38 349 291 246 239 252 260 255 242 218 194 210 213 225 221 236 225 258 292 4 288 278 52 330 70 227 253
333 330 331 333 335 337 339 340 341 343 344 345 342 337 333 332 329 287 301 350 339 333 263 217 219 230 224 213 232 197 198 212 214 224 226 232 232 233 251 244 241 257 275 243 313 299 247
318 323 324 325 327 331 334 337 336 339 342 343 340 336 334 333 297 330 260 336 320 318 270 162 198 208 191 224 223 241 189 218 232 231 227 239 245 252 212 236 265 308 319 297 280 266 152
304 309 316 320 320 324 329 332 332 334 338 338 337 334 329 329 305 287 1 307 314 257 263 141 131 108 192 205 104 190 209 219 230 224 241 231 231 245 229 234 238 297 359 309 304 286 266
298 299 302 311 317 318 324 328 329 330 335 334 333 332 325 310 251 271 300 298 265 232 245 146 150 192 192 212 229 159 195 229 233 246 230 256 242 236 246 231 245 259 288 251 246 251 261
301 302 299 302 311 316 319 325 328 329 332 332 329 327 305 278 277 304 295 256 229 244 87 163 198 186 208 189 217 183 198 200 217 220 233 223 239 254 234 239 233 218 251 252 248 260 72
324 308 301 297 307 313 316 322 325 327 331 331 326 316 283 244 267 274 254 233 248 347 213 82 251 226 230 205 212 200 203 210 216 225 245 218 219 222 209 243 245 208 245 274 286 183 235
325 319 312 303 305 313 318 321 325 326 331 334 330 297 243 251 222 226 239 228 225 259 349 268 263 238 201 218 218 213 219 215 216 223 242 247 231 211 213 219 241 240 236 275 294 288 234
318 318 310 301 302 311 318 322 325 327 332 337 322 287 241 197 205 210 234 251 272 16 323 255 269 226 225 199 197 218 208 223 228 221 230 267 280 221 181 222 227 244 252 221 238 270 267
312 311 313 306 310 313 320 323 327 329 333 330 283 245 104 177 183 218 231 236 249 168 232 270 284 290 264 244 198 226 225 221 221 232 212 244 246 238 188 203 226 206 244 257 283 181 276
303 306 310 308 305 313 317 323 328 334 341 334 284 248 143 170 210 222 234 246 37 274 202 245 285 277 288 263 256 248 231 234 202 234 207 227 249 232 231 211 220 240 216 239 242 220 265
291 298 307 311 306 303 311 317 327 335 348 331 273 294 158 211 233 225 234 259 247 255 241 233 241 238 288 273 258 267 232 244 188 227 230 211 231 256 238 202 218 227 238 229 246 257 261
277 291 297 307 306 303 310 315 321 330 337 333 275 238 164 211 264 290 245 228 229 202 266 271 260 272 276 248 243 274 236 164 242 239 16 247 238 234 247 235 200 220 241 242 254 256 248
262 291 292 304 302 296 291 304 313 324 332 318 241 270 5 189 225 238 263 285 238 241 201 237 236 243 258 252 250 215 260 154 192 169 226 226 243 244 256 269 240 234 216 232 241 252 263
246 289 292 306 303 296 284 293 302 321 329 259 299 331 341 276 318 283 219 251 245 255 247 233 228 249 218 246 271 316 240 226 190 173 217 217 241 241 249 251 249 254 253 216 232 239 254
292 289 299 310 305 298 282 281 292 316 339 290 19 269 266 278 256 237 235 224 263 255 305 275 318 275 236 262 317 331 312 305 277 253 183 218 237 246 238 232 240 236 242 247 226 233 233
317 301 292 303 306 301 278 269 277 291 320 304 317 301 272 261 250 253 255 286 273 242 263 305 241 264 266 330 302 264 251 253 257 267 249 215 230 244 250 227 223 250 224 225 246 244 240
308 299 292 299 303 301 281 261 259 267 297 300 299 288 288 275 281 267 266 275 265 252 237 247 251 262 287 277 268 247 222 228 227 230 250 243 214 227 246 242 234 244 198 199 217 210 242
302 302 292 294 297 294 285 257 248 253 262 300 288 292 275 289 260 330 304 284 272 249 237 232 236 245 277 261 252 240 232 212 206 218 219 246 245 289 331 265 231 246 186 203 236 245 16
297 299 303 301 294 287 283 252 238 243 250 266 289 294 278 274 276 285 253 302 297 275 283 307 256 266 231 252 256 246 217 250 263 201 219 217 235 235 197 143 289 87 43 121 201 89 37
298 297 300 301 298 283 269 248 228 234 239 236 281 289 302 287 291 296 285 281 269 246 274 34 275 220 264 238 252 261 206 310 75 264 323 252 238 223 247 205 242 359 192 267 85 88 33
306 304 298 294 292 285 273 255 230 225 229 224 279 294 297 252 291 310 281 273 270 276 297 305 302 320 343 293 251 283 19 62 350 282 315 327 125 275 56 41 348 77 286 43 27 29 22